Tracking 19170 objects as of 22-May-2018
HD Live streaming from Space Station
objects crossing your sky now

ORBCOMM FM 10

Track ORBCOMM FM 10 now!
10-day predictions
ORBCOMM FM 10 is classified as:


NORAD ID: 25113
Int'l Code: 1997-084B
Perigee: 766.9 km
Apogee: 772.8 km
Inclination: 45.0 °
Period: 100.1 minutes
Semi major axis: 7140 km
RCS: 0.4291 m2 (medium)
Launch date: December 23, 1997
Source: ORBCOMM (ORB)
Launch site: Pegasus launched from Eastern Range Air Space (ERAS)
aabbcc
Your satellite tracking list
Your tracking list is empty




NASA's NSSDC Master Catalog

Two Line Element Set (TLE):
1 25113U 97084B   18141.26297436 +.00000116 +00000-0 +83480-4 0  9999
2 25113 045.0185 064.3568 0004087 193.0815 166.9928 14.38724784243980
Source of the keplerian elements: AFSPC